[[{"header":{"parameterUnit":"m.s-1","parameterCategory":1,"la1":30.2991,"la2":30.254,"lo1":-89.0895,"lo2":-89.0444,"dy":0.0017,"dx":0.0017,"nx":28,"ny":28,"refTime":"2025-01-12T09:00:00:Z","depth":0,"parameterNumber":2,"parameterNumberName":"U-component_of_WINDS"},"data":[0,0,0,0,0,0,0,0,0,0,0,0,0,0,0,0,0,0,0,0,0,0,0,0,0,0,0,0,0,0,0,0,0,0,0,0,0,0,0,0,0,0,0,0,0,0,0,0,0,0,0,0,0,0,0,0,0,0,-1.1369,-1.1369,0,-1.1397,-1.1397,-1.1397,-1.1361,-1.136,-1.1359,-1.1358,-1.1389,-1.1391,-1.1393,0,0,0,0,0,0,0,0,0,0,0,0,0,-1.1287,-1.1288,-1.1369,-1.1369,-1.137,-1.1397,-1.1397,-1.1397,-1.1362,-1.136,-1.1358,-1.1357,-1.1388,-1.139,-1.1393,0,0,0,0,0,0,0,0,0,0,0,0,0,-1.1319,-1.1289,-1.1369,-1.1355,-1.1354,-1.1396,-1.1397,-1.1397,-1.1362,-1.136,-1.1358,-1.1356,-1.1387,-1.139,-1.1393,-1.1451,0,0,-1.1403,-1.1404,0,0,0,0,0,0,0,0,-1.1317,-1.1322,-1.1357,-1.1356,-1.1355,-1.1373,-1.1379,-1.1416,-1.1363,-1.1359,-1.1358,-1.1355,-1.1385,-1.1388,-1.1398,-1.1453,-1.1454,-1.1403,-1.1405,-1.1406,-1.1407,0,0,0,0,0,0,0,-1.1315,-1.1321,-1.138,-1.1357,-1.1356,-1.1348,-1.135,-1.1386,-1.1383,-1.1359,-1.1357,-1.136,-1.1385,-1.1395,-1.1399,-1.1455,-1.1403,-1.1405,-1.1407,-1.1409,-1.1558,-1.156,0,0,0,0,0,0,-1.1314,-1.1319,-1.1379,-1.1381,-1.1331,-1.1351,-1.1354,-1.137,-1.1382,-1.1382,-1.1362,-1.1359,-1.1391,-1.1395,-1.1399,-1.1469,-1.1406,-1.1409,-1.1411,-1.1556,-1.1559,-1.1561,0,0,0,0,0,0,-1.1313,-1.132,-1.1378,-1.1349,-1.1356,-1.1354,-1.1373,-1.1371,-1.1382,-1.1384,-1.1384,-1.1373,-1.1389,-1.1395,-1.1438,-1.1469,-1.141,-1.1413,-1.1554,-1.1557,-1.156,-1.1607,0,0,0,0,0,0,-1.1311,-1.132,-1.1342,-1.135,-1.1358,-1.1416,-1.1374,-1.1373,-1.1387,-1.1383,-1.1395,-1.1395,-1.1388,-1.1434,-1.1442,-1.1472,-1.1415,-1.1551,-1.1555,-1.1559,-1.1603,-1.1612,-1.1619,0,0,0,0,0,-1.1308,-1.1354,-1.1343,-1.135,-1.1385,-1.1418,-1.1422,-1.1413,-1.1389,-1.1412,-1.1413,-1.1395,-1.1464,-1.1439,-1.1447,-1.1479,-1.1549,-1.1554,-1.1559,-1.16,-1.161,-1.1619,0,0,0,0,0,0,-1.1351,-1.1355,-1.1343,-1.1393,-1.1405,-1.1412,-1.144,-1.1425,-1.1444,-1.144,-1.1428,-1.1431,-1.1477,-1.1482,-1.1454,-1.1536,-1.1503,-1.1509,-1.1531,-1.1541,-1.1549,-1.1548,-1.1418,0,0,0,0,0,-1.1366,-1.1392,-1.1395,-1.1439,-1.1446,-1.1442,-1.1456,-1.1447,-1.146,-1.1465,-1.147,-1.1483,-1.1508,-1.1525,-1.1548,-1.1603,-1.1606,-1.1629,-1.1637,-1.1644,-1.165,-1.168,-1.1691,-1.1577,-1.1577,-1.1577,0,0,-1.1398,-1.1404,-1.1421,-1.1448,-1.1456,-1.1484,-1.1446,-1.1477,-1.1498,-1.147,-1.1511,-1.1515,-1.1529,-1.1579,-1.1601,-1.1585,-1.1682,-1.165,-1.1655,-1.1658,-1.1686,-1.1697,-1.1707,-1.158,-1.158,-1.1579,0,0,-1.1471,-1.1477,-1.1515,-1.1524,-1.1537,-1.1533,-1.1543,-1.1551,-1.1552,-1.1593,-1.1572,-1.1597,-1.164,-1.1651,-1.1662,-1.1737,-1.1721,-1.1745,-1.1788,-1.1817,-1.1826,-1.1834,-1.1862,-1.1872,-1.1751,-1.1751,-1.1751,0,-1.151,-1.155,-1.1537,-1.1569,-1.1582,-1.1556,-1.1594,-1.1604,-1.1624,-1.1633,-1.1614,-1.1667,-1.1675,-1.1727,-1.1745,-1.1755,-1.1765,-1.1744,-1.1826,-1.1834,-1.1841,-1.1867,-1.1877,-1.1754,-1.1754,-1.1753,-1.1753,0,-1.1597,-1.1625,-1.1654,-1.1673,-1.1689,-1.1724,-1.1717,-1.1734,-1.1724,-1.1723,-1.1765,-1.1772,-1.1797,-1.1808,-1.1799,-1.1859,-1.1848,-1.1827,-1.1794,-1.1855,-1.1879,-1.1889,-1.1758,-1.1757,-1.1756,-1.1756,0,0,-1.17,-1.1709,-1.1721,-1.1729,-1.174,-1.1762,-1.1796,-1.1818,-1.1834,-1.1848,-1.1877,-1.1913,-1.1894,-1.1906,-1.1898,-1.1923,-1.1983,-1.1899,-1.19,-1.1915,-1.205,-1.2066,-1.2078,-1.1971,-1.1973,-1.1975,-1.2049,0,-1.1773,-1.1831,-1.182,-1.1877,-1.1903,-1.1878,-1.1908,-1.1918,-1.1918,-1.194,-1.1939,-1.1966,-1.1938,-1.1945,-1.1969,-1.1971,-1.201,-1.1965,-1.1999,-1.2,-1.1998,-1.2091,-1.2108,-1.2178,-1.2058,-1.206,-1.2061,0,-1.1867,-1.1883,-1.1943,-1.195,-1.196,-1.1987,-1.2006,-1.2028,-1.2039,-1.2037,-1.205,-1.2036,-1.2071,-1.2035,-1.2083,-1.2052,-1.2065,-1.2068,-1.207,-1.2074,-1.2036,-1.2098,-1.22,-1.2211,-1.2076,-1.2075,-1.2074,0,-1.1937,-1.1974,-1.2014,-1.2022,-1.203,-1.205,-1.2054,-1.2064,-1.2078,-1.2095,-1.2104,-1.2125,-1.2137,-1.2153,-1.2146,-1.2121,-1.2194,-1.2159,-1.2194,-1.2195,-1.2212,-1.2212,-1.2319,-1.2219,-1.2219,-1.2219,-1.2218,0,-1.2021,-1.2058,-1.2046,-1.2071,-1.2112,-1.2098,-1.214,-1.2141,-1.215,-1.2175,-1.2154,-1.2179,-1.2166,-1.219,-1.2184,-1.2224,-1.2229,-1.2229,-1.2228,-1.2232,-1.2232,-1.2241,-1.2237,-1.2221,-1.2221,-1.222,-1.222,0,-1.2106,-1.2099,-1.2142,-1.2146,-1.2148,-1.2178,-1.2182,-1.2205,-1.2202,-1.2235,-1.2241,-1.2237,-1.2264,-1.2257,-1.2286,-1.2282,-1.2333,-1.2325,-1.2329,-1.2328,-1.2364,-1.2361,-1.2482,-1.2497,-1.2387,-1.2388,-1.2389,0,-1.2161,-1.2189,-1.2196,-1.2211,-1.2217,-1.2241,-1.2255,-1.2242,-1.2258,-1.2272,-1.2294,-1.2318,-1.2337,-1.238,-1.2381,-1.2403,-1.2395,-1.2436,-1.2399,-1.2402,-1.2397,-1.2396,-1.2399,-1.2444,-1.2445,-1.2446,-1.2447,0,-1.2259,-1.2254,-1.2274,-1.2293,-1.231,-1.2325,-1.2338,-1.2351,-1.2339,-1.2358,-1.2384,-1.2398,-1.2427,-1.2452,-1.2472,-1.2477,-1.2461,-1.2458,-1.2468,-1.2473,-1.2475,-1.2476,-1.2351,-1.2456,-1.2455,-1.2455,-1.2454,-1.2454,-1.2332,-1.2356,-1.2364,-1.2387,-1.2395,-1.2407,-1.2429,-1.2429,-1.245,-1.2472,-1.2463,-1.2493,-1.2503,-1.2528,-1.2535,-1.2559,-1.2544,-1.2558,-1.2561,-1.2565,-1.257,-1.247,-1.2563,-1.2562,-1.2562,-1.2562,-1.2562,0,-1.243,-1.2433,-1.2455,-1.2473,-1.2491,-1.2472,-1.2485,-1.2502,-1.2528,-1.2538,-1.2557,-1.2587,-1.261,-1.2611,-1.2633,-1.2652,-1.2645,-1.2659,-1.2658,-1.2659,-1.2582,-1.2572,-1.2664,-1.2664,-1.2664,-1.2664,-1.2664,-1.2664,-1.2483,-1.2522,-1.2518,-1.2561,-1.2564,-1.2593,-1.2602,-1.2613,-1.2621,-1.2655,-1.2674,-1.2674,-1.2681,-1.2703,-1.2723,-1.2723,-1.2733,-1.2749,-1.2746,-1.2675,-1.2665,-1.2655,-1.2646,-1.2751,-1.2751,-1.2821,-1.2822,-1.2823]},{"header":{"parameterUnit":"m.s-1","parameterCategory":1,"la1":30.2991,"la2":30.254,"lo1":-89.0895,"lo2":-89.0444,"dy":0.0017,"dx":0.0017,"nx":28,"ny":28,"refTime":"2025-01-12T09:00:00:Z","depth":0,"parameterNumber":3,"parameterNumberName":"V-component_of_WINDS"},"data":[0,0,0,0,0,0,0,0,0,0,0,0,0,0,0,0,0,0,0,0,0,0,0,0,0,0,0,0,0,0,0,0,0,0,0,0,0,0,0,0,0,0,0,0,0,0,0,0,0,0,0,0,0,0,0,0,0,0,-7.025,-7.025,0,-7.0287,-7.0288,-7.0288,-7.0192,-7.0189,-7.0186,-7.0183,-7.0217,-7.022,-7.0224,0,0,0,0,0,0,0,0,0,0,0,0,0,-7.0091,-7.0094,-7.025,-7.025,-7.0251,-7.0287,-7.0288,-7.0288,-7.0192,-7.0189,-7.0185,-7.0182,-7.0215,-7.022,-7.0224,0,0,0,0,0,0,0,0,0,0,0,0,0,-7.0147,-7.0095,-7.025,-7.0207,-7.0204,-7.0287,-7.0288,-7.0288,-7.0193,-7.0189,-7.0184,-7.018,-7.0214,-7.0219,-7.0225,-7.0349,0,0,-7.0242,-7.0244,0,0,0,0,0,0,0,0,-7.0144,-7.0153,-7.0213,-7.021,-7.0207,-7.023,-7.0244,-7.0308,-7.0194,-7.0197,-7.0183,-7.0178,-7.0225,-7.0229,-7.0246,-7.0351,-7.0352,-7.0242,-7.0246,-7.0248,-7.025,0,0,0,0,0,0,0,-7.014,-7.0151,-7.0264,-7.0214,-7.021,-7.0185,-7.0188,-7.0256,-7.0235,-7.0196,-7.019,-7.0196,-7.0222,-7.0241,-7.0246,-7.0352,-7.0242,-7.0247,-7.025,-7.0253,-7.0561,-7.0566,0,0,0,0,0,0,-7.0143,-7.0148,-7.0263,-7.0265,-7.0164,-7.0192,-7.0195,-7.0227,-7.0234,-7.0231,-7.0199,-7.0191,-7.0233,-7.0239,-7.0247,-7.0392,-7.0248,-7.0253,-7.0256,-7.0556,-7.0562,-7.0567,0,0,0,0,0,0,-7.014,-7.0154,-7.0262,-7.0205,-7.0217,-7.0199,-7.0236,-7.023,-7.0249,-7.0237,-7.0232,-7.0223,-7.023,-7.0239,-7.0324,-7.0392,-7.0256,-7.0261,-7.055,-7.0558,-7.0565,-7.0685,0,0,0,0,0,0,-7.0135,-7.0153,-7.0201,-7.0207,-7.022,-7.0341,-7.024,-7.0234,-7.0259,-7.0249,-7.0257,-7.0254,-7.0227,-7.0317,-7.033,-7.0397,-7.0265,-7.0544,-7.0554,-7.0562,-7.0675,-7.0696,-7.0713,0,0,0,0,0,-7.013,-7.0233,-7.0204,-7.0219,-7.028,-7.0345,-7.0352,-7.032,-7.0265,-7.0313,-7.0305,-7.0254,-7.0383,-7.0326,-7.034,-7.041,-7.054,-7.0551,-7.0562,-7.0667,-7.0692,-7.0713,0,0,0,0,0,0,-7.0233,-7.0233,-7.0201,-7.0309,-7.0328,-7.0328,-7.0387,-7.0348,-7.0382,-7.037,-7.0328,-7.033,-7.0424,-7.0425,-7.0363,-7.0531,-7.0452,-7.0466,-7.0527,-7.055,-7.0569,-7.0567,-7.027,0,0,0,0,0,-7.0269,-7.0323,-7.0319,-7.0414,-7.0426,-7.0405,-7.0432,-7.0406,-7.0423,-7.043,-7.0429,-7.0446,-7.049,-7.052,-7.056,-7.0675,-7.0675,-7.073,-7.0749,-7.0765,-7.0778,-7.0838,-7.0862,-7.0603,-7.0603,-7.0603,0,0,-7.0342,-7.0349,-7.0385,-7.0435,-7.0447,-7.0503,-7.0413,-7.0475,-7.0515,-7.0439,-7.0521,-7.052,-7.0537,-7.0638,-7.0682,-7.0642,-7.0849,-7.0779,-7.0792,-7.0796,-7.0852,-7.0876,-7.0898,-7.0611,-7.0609,-7.0608,0,0,-7.0505,-7.0516,-7.0597,-7.0611,-7.063,-7.0616,-7.0636,-7.0643,-7.064,-7.0721,-7.0666,-7.0712,-7.079,-7.0804,-7.0821,-7.099,-7.0945,-7.1004,-7.1104,-7.1164,-7.1184,-7.1202,-7.1262,-7.1284,-7.1017,-7.1017,-7.1018,0,-7.0593,-7.0677,-7.0643,-7.071,-7.0733,-7.0669,-7.0749,-7.0764,-7.0795,-7.0812,-7.0767,-7.0863,-7.087,-7.0973,-7.1015,-7.1031,-7.1051,-7.1003,-7.1184,-7.1202,-7.1218,-7.1275,-7.1297,-7.1024,-7.1024,-7.1023,-7.1022,0,-7.0784,-7.0843,-7.0906,-7.094,-7.097,-7.1043,-7.1019,-7.1054,-7.1025,-7.1016,-7.1099,-7.1105,-7.1145,-7.1168,-7.114,-7.1267,-7.1242,-7.1192,-7.1111,-7.125,-7.1303,-7.1324,-7.1035,-7.1032,-7.103,-7.1028,0,0,-7.1012,-7.1028,-7.1051,-7.1066,-7.1083,-7.1127,-7.1197,-7.1238,-7.1268,-7.1292,-7.1349,-7.1417,-7.137,-7.139,-7.1363,-7.1416,-7.1549,-7.1358,-7.1358,-7.1393,-7.169,-7.1727,-7.1753,-7.1519,-7.1523,-7.1526,-7.1688,0,-7.1173,-7.1296,-7.1267,-7.1388,-7.1441,-7.1381,-7.1442,-7.1458,-7.1452,-7.1494,-7.1485,-7.1534,-7.1469,-7.1481,-7.153,-7.1523,-7.1608,-7.151,-7.1571,-7.1574,-7.1569,-7.1781,-7.1821,-7.1973,-7.1708,-7.1712,-7.1714,0,-7.1376,-7.141,-7.1537,-7.1546,-7.1567,-7.1623,-7.1658,-7.1701,-7.1718,-7.1709,-7.1732,-7.1695,-7.1763,-7.1682,-7.1775,-7.171,-7.1733,-7.1733,-7.1738,-7.1742,-7.1652,-7.179,-7.2021,-7.2044,-7.1747,-7.1744,-7.1742,0,-7.153,-7.1607,-7.1692,-7.1707,-7.172,-7.176,-7.1767,-7.178,-7.1807,-7.1837,-7.1854,-7.1891,-7.1912,-7.1941,-7.1915,-7.1859,-7.2012,-7.1929,-7.2005,-7.2006,-7.204,-7.2038,-7.2278,-7.2056,-7.2055,-7.2055,-7.2054,0,-7.1712,-7.1792,-7.1762,-7.1814,-7.1902,-7.1868,-7.1954,-7.1954,-7.1966,-7.2017,-7.1966,-7.2014,-7.1977,-7.2021,-7.2001,-7.2081,-7.209,-7.2084,-7.2078,-7.2089,-7.209,-7.2103,-7.2092,-7.2061,-7.206,-7.2058,-7.2057,0,-7.1898,-7.1881,-7.1971,-7.1976,-7.198,-7.2044,-7.2047,-7.2095,-7.2085,-7.215,-7.2163,-7.2146,-7.2196,-7.2173,-7.2225,-7.2211,-7.2314,-7.2293,-7.2309,-7.2303,-7.2381,-7.2374,-7.2637,-7.2669,-7.2427,-7.243,-7.2432,0,-7.2015,-7.2076,-7.2088,-7.2119,-7.2131,-7.2181,-7.2209,-7.2177,-7.2208,-7.2232,-7.2278,-7.2323,-7.2358,-7.2441,-7.2432,-7.2472,-7.2451,-7.2541,-7.2457,-7.2466,-7.2452,-7.2449,-7.2455,-7.2558,-7.256,-7.2563,-7.2565,0,-7.2225,-7.2214,-7.2257,-7.2297,-7.2332,-7.2362,-7.2386,-7.2414,-7.2384,-7.2421,-7.2472,-7.25,-7.2553,-7.2599,-7.2634,-7.2639,-7.2597,-7.2591,-7.2611,-7.2623,-7.2629,-7.2626,-7.2355,-7.2585,-7.2583,-7.2582,-7.258,-7.258,-7.238,-7.2431,-7.2448,-7.2497,-7.2513,-7.2538,-7.2584,-7.258,-7.2623,-7.2666,-7.2644,-7.2704,-7.2719,-7.2761,-7.2772,-7.2818,-7.2782,-7.2811,-7.2818,-7.2825,-7.2836,-7.2623,-7.2824,-7.2823,-7.2823,-7.2822,-7.2822,0,-7.2587,-7.2596,-7.2641,-7.2679,-7.2718,-7.2677,-7.2702,-7.2737,-7.2791,-7.2809,-7.2845,-7.2904,-7.2949,-7.2945,-7.2985,-7.3022,-7.3004,-7.3034,-7.3031,-7.3032,-7.2865,-7.2844,-7.3048,-7.3048,-7.3048,-7.3048,-7.3048,-7.3048,-7.2699,-7.2783,-7.2775,-7.2866,-7.2873,-7.2933,-7.2951,-7.2973,-7.2988,-7.3057,-7.3095,-7.3092,-7.3101,-7.3142,-7.3181,-7.3178,-7.3195,-7.3232,-7.3223,-7.3067,-7.3044,-7.3023,-7.3003,-7.3236,-7.3237,-7.3386,-7.3387,-7.3388]}]]